Regional Weather Roundup
Issued by NWS

Home | Current Version | Previous Version | Text Only | Print | Product List | Glossary Off
Versions: 1 2 3 4 5 6 7 8 9 10 11 12 13 14 15 16 17 18 19 20 21 22 23 24 25 26 27 28 29 30 31 32 33 34 35 36 37 38 39 40 41 42 43 44 45 46 47 48 49 50

411
ASUS43 KLMK 230410
RWRKY
KENTUCKY REGIONAL WEATHER ROUNDUP
NATIONAL WEATHER SERVICE LOUISVILLE KY
1100 PM EST SUN JAN 22 2017

NOTE "FAIR" INDICATES FEW OR NO CLOUDS BELOW 12,000 FEET
WITH NO SIGNIFICANT WEATHER AND/OR OBSTRUCTIONS TO VISIBILITY.

KYZ001>023-026-027-061>063-070>075-230500-
WESTERN AND SOUTH CENTRAL KENTUCKY

CITY           SKY/WX    TMP DP  RH WIND       PRES   REMARKS
PADUCAH        CLOUDY    53  48  83 N22G28    29.48R
HENDERSON      PTCLDY    54  46  76 NW13G21   29.45R
OWENSBORO      CLOUDY    57  50  77 N16G23    29.41S
HOPKINSVILLE   CLOUDY    58  51  76 N17G25    29.35S
BOWLING GREEN  CLOUDY    59  51  75 N8G21     29.32S
GLASGOW        CLOUDY    56  51  82 N9G16     29.31S
$$

KYZ024-025-028>034-038-045-046-053-230500-
NORTH CENTRAL KENTUCKY

CITY           SKY/WX    TMP DP  RH WIND       PRES   REMARKS
LOUISVILLE/SDF CLOUDY    59  47  64 N14G23    29.38S
LOUISVILLE/LOU CLOUDY    59  48  67 NE9G23    29.39S
FORT KNOX      CLOUDY    57  48  71 N15G22    29.35S
$$

KYZ035>037-039>044-047>052-055>060-089>105-230500-
NORTHEAST KENTUCKY

CITY           SKY/WX    TMP DP  RH WIND       PRES   REMARKS
LEXINGTON      CLOUDY    55  50  83 NE15      29.35S
COVINGTON      CLOUDY    56  49  77 NE15      29.42F
FRANKFORT      CLOUDY    57  49  74 N10       29.36S
$$

KYZ054-064>069-076>088-106>120-230500-
SOUTHEAST KENTUCKY

CITY           SKY/WX    TMP DP  RH WIND       PRES   REMARKS
JACKSON        LGT RAIN  53  51  93 VRB6      29.31S
LONDON         LGT RAIN  54  50  86 NE9       29.28F
SOMERSET       DRIZZLE   52  52 100 N12G17    29.29S
MIDDLESBORO    RAIN      53  53 100 CALM      29.26F
MONTICELLO     LGT RAIN  54  53  97 N22       29.29S
$$





USA.gov is the U.S. government's official web portal to all federal, state and local government web resources and services.